West Point, VA

6:57 AM EST on February 13, 2016 (GMT -0500)
West Point

Weather History for KFYJ - November, 2012

Change the Weather History Date:

Friday, November 2, 2012

  Actual Average (KRIC) Record (KRIC)
Temperature  
Mean Temperature 46 °F 55 °F  
Max Temperature 58 °F 66 °F 84 °F (1950)
Min Temperature 33 °F 43 °F 23 °F (1930)
Degree Days  
Heating Degree Days 19 11  
Month to date heating degree days 21  
Since 1 July heating degree days 254  
Cooling Degree Days 0 0  
Month to date cooling degree days 0  
Year to date cooling degree days 1543  
Moisture  
Dew Point 37 °F    
Average Humidity 71    
Maximum Humidity 100    
Minimum Humidity 39    
Precipitation  
Precipitation 0.00 in 0.11 in 1.66 in (1956)
Month to date precipitation 0.22  
Year to date precipitation 37.32  
Snow  
Snow 0.00 in 0.00 in 0.00 in (2002)
Month to date snowfall 0.0  
Since 1 July snowfall 0.0  
Snow Depth -    
Sea Level Pressure  
Sea Level Pressure 29.84 in    
Wind  
Wind Speed 5 mph (West)    
Max Wind Speed 18 mph    
Max Gust Speed 25 mph    
Visibility 10 miles    
Events      
T = Trace of Precipitation, MM = Missing Value Source: NWS Daily Summary

Daily Weather History Graph

Daily Weather History Graph

Search for Another Location

Airport or City:

Trip Planner

Search our weather history database for the weather conditions in past years. The results will help you decide how hot, cold, wet, or windy it might be!

Date:

Astronomy

Nov. 02, 2012 Rise Set
Actual Time 7:33 AM EDT 6:07 PM EDT
Civil Twilight 7:06 AM EDT 6:34 PM EDT
Nautical Twilight 6:35 AM EDT 7:05 PM EDT
Astronomical Twilight 6:04 AM EDT 7:35 PM EDT
Moon 8:55 PM EDT (11/2) 10:49 AM EDT (11/2)
Length of Visible Light 11h 28m
Length of Day
10h 33m
Waning Gibbous, 87% of the Moon is Illuminated
Nov 2
Waning Gibbous
Nov 6
Last Quarter
Nov 13
New
Nov 20
First Quarter
Nov 28
Full

Hourly Weather History & Observations

Time (EDT) Temp. Windchill Dew Point Humidity Pressure Visibility Wind Dir Wind Speed Gust Speed Precip Events Conditions
12:15 AM 46.9 °F - 42.1 °F 83% 29.79 in 10.0 mi West 3.5 mph - N/A   Mostly Cloudy
12:35 AM 48.2 °F - 43.0 °F 82% 29.80 in 10.0 mi WNW 6.9 mph - N/A   Overcast
12:55 AM 49.5 °F - 41.7 °F 75% 29.80 in 10.0 mi NW 5.8 mph - N/A   Overcast
1:15 AM 49.3 °F - 40.8 °F 73% 29.80 in 10.0 mi NW 3.5 mph - N/A   Overcast
1:35 AM 49.1 °F - 40.1 °F 71% 29.80 in 10.0 mi Calm Calm - N/A   Overcast
2:15 AM 47.1 °F - 39.7 °F 76% 29.80 in 10.0 mi Calm Calm - N/A   Mostly Cloudy
2:35 AM 44.1 °F - 40.1 °F 86% 29.81 in 10.0 mi Calm Calm - N/A   Clear
2:55 AM 40.5 °F - 39.0 °F 95% 29.81 in 10.0 mi Calm Calm - N/A   Clear
3:15 AM 43.7 °F 41.1 °F 39.2 °F 84% 29.81 in 10.0 mi West 4.6 mph - N/A   Clear
3:55 AM 42.6 °F 39.9 °F 37.6 °F 82% 29.81 in 10.0 mi WSW 4.6 mph - N/A   Clear
4:15 AM 42.3 °F 39.4 °F 37.8 °F 84% 29.80 in 10.0 mi West 4.6 mph - N/A   Clear
4:35 AM 43.0 °F 38.8 °F 38.7 °F 85% 29.80 in 10.0 mi WSW 6.9 mph - N/A   Mostly Cloudy
4:55 AM 42.8 °F - 38.7 °F 85% 29.80 in 10.0 mi Calm Calm - N/A   Overcast
5:15 AM 41.5 °F 38.6 °F 38.1 °F 88% 29.80 in 10.0 mi WSW 4.6 mph - N/A   Mostly Cloudy
5:35 AM 41.0 °F 36.4 °F 37.8 °F 88% 29.80 in 10.0 mi WSW 6.9 mph - N/A   Mostly Cloudy
5:55 AM 40.6 °F 38.6 °F 37.6 °F 89% 29.80 in 10.0 mi West 3.5 mph - N/A   Scattered Clouds
6:15 AM 40.6 °F 36.7 °F 37.4 °F 88% 29.81 in 10.0 mi West 5.8 mph - N/A   Scattered Clouds
6:35 AM 40.6 °F 36.0 °F 37.4 °F 88% 29.81 in 10.0 mi West 6.9 mph - N/A   Clear
7:15 AM 40.5 °F 36.5 °F 36.7 °F 86% 29.82 in 10.0 mi WSW 5.8 mph - N/A   Clear
7:55 AM 39.9 °F 35.8 °F 36.1 °F 86% 29.83 in 10.0 mi WSW 5.8 mph - N/A   Clear
8:15 AM 39.9 °F 36.7 °F 36.5 °F 88% 29.83 in 10.0 mi WSW 4.6 mph - N/A   Clear
8:35 AM 41.2 °F 38.2 °F 37.2 °F 86% 29.83 in 10.0 mi WSW 4.6 mph - N/A   Clear
8:55 AM 43.0 °F 38.2 °F 38.1 °F 83% 29.84 in 10.0 mi WSW 8.1 mph - N/A   Scattered Clouds
9:15 AM 43.7 °F 41.1 °F 37.6 °F 79% 29.83 in 10.0 mi WSW 4.6 mph - N/A   Overcast
9:35 AM 45.9 °F 42.9 °F 38.8 °F 76% 29.83 in 10.0 mi SW 5.8 mph - N/A   Scattered Clouds
10:15 AM 49.3 °F - 38.3 °F 66% 29.83 in 10.0 mi WSW 9.2 mph - N/A   Mostly Cloudy
10:35 AM 50.5 °F - 37.2 °F 60% 29.82 in 10.0 mi West 10.4 mph - N/A   Mostly Cloudy
10:55 AM 52.0 °F - 37.8 °F 58% 29.82 in 10.0 mi West 9.2 mph - N/A   Scattered Clouds
11:15 AM 52.9 °F - 37.9 °F 57% 29.83 in 10.0 mi West 9.2 mph - N/A   Mostly Cloudy
11:35 AM 52.9 °F - 36.5 °F 54% 29.82 in 10.0 mi West 11.5 mph 17.3 mph N/A   Overcast
11:55 AM 53.2 °F - 36.5 °F 53% 29.82 in 10.0 mi West 10.4 mph - N/A   Mostly Cloudy
12:15 PM 54.1 °F - 37.9 °F 54% 29.82 in 10.0 mi West 10.4 mph 17.3 mph N/A   Overcast
12:35 PM 54.7 °F - 37.0 °F 51% 29.81 in 10.0 mi West 12.7 mph 19.6 mph N/A   Mostly Cloudy
12:55 PM 55.2 °F - 37.4 °F 51% 29.81 in 10.0 mi West 11.5 mph 19.6 mph N/A   Mostly Cloudy
1:15 PM 56.1 °F - 37.0 °F 49% 29.79 in 10.0 mi West 12.7 mph 23.0 mph N/A   Mostly Cloudy
1:35 PM 57.0 °F - 35.6 °F 45% 29.78 in 10.0 mi West 11.5 mph 19.6 mph N/A   Mostly Cloudy
1:55 PM 57.7 °F - 35.1 °F 43% 29.78 in 10.0 mi West 17.3 mph 23.0 mph N/A   Mostly Cloudy
2:15 PM 58.1 °F - 34.0 °F 40% 29.78 in 10.0 mi West 11.5 mph 24.2 mph N/A   Mostly Cloudy
2:35 PM 58.1 °F - 33.4 °F 39% 29.78 in 10.0 mi WNW 18.4 mph 24.2 mph N/A   Mostly Cloudy
2:55 PM 56.8 °F - 32.2 °F 39% 29.78 in 10.0 mi West 15.0 mph 21.9 mph N/A   Scattered Clouds
3:15 PM 57.0 °F - 32.5 °F 40% 29.78 in 10.0 mi WNW 12.7 mph 20.7 mph N/A   Mostly Cloudy
3:35 PM 57.2 °F - 33.6 °F 41% 29.79 in 10.0 mi West 11.5 mph 25.3 mph N/A   Scattered Clouds
3:55 PM 57.2 °F - 34.2 °F 42% 29.80 in 10.0 mi West 15.0 mph 19.6 mph N/A   Clear
4:15 PM 56.7 °F - 36.7 °F 47% 29.81 in 10.0 mi NW 11.5 mph 17.3 mph N/A   Mostly Cloudy
4:35 PM 55.6 °F - 36.5 °F 49% 29.81 in 10.0 mi NW 6.9 mph - N/A   Scattered Clouds
4:55 PM 55.4 °F - 36.3 °F 49% 29.81 in 10.0 mi WNW 5.8 mph - N/A   Clear
5:15 PM 54.9 °F - 35.8 °F 49% 29.82 in 10.0 mi WNW 9.2 mph - N/A   Clear
5:35 PM 54.5 °F - 35.8 °F 49% 29.83 in 10.0 mi West 8.1 mph - N/A   Clear
5:55 PM 53.2 °F - 36.0 °F 52% 29.84 in 10.0 mi West 8.1 mph - N/A   Clear
6:15 PM 52.7 °F - 36.0 °F 53% 29.85 in 10.0 mi WNW 6.9 mph - N/A   Clear
6:35 PM 51.6 °F - 34.9 °F 53% 29.86 in 10.0 mi WNW 5.8 mph - N/A   Clear
6:55 PM 50.9 °F - 35.1 °F 55% 29.87 in 10.0 mi WNW 3.5 mph - N/A   Clear
7:15 PM 49.1 °F - 36.5 °F 62% 29.88 in 10.0 mi North 3.5 mph - N/A   Clear
7:35 PM 48.2 °F - 36.3 °F 63% 29.89 in 10.0 mi Calm Calm - N/A   Clear
7:55 PM 47.3 °F - 36.5 °F 66% 29.90 in 10.0 mi Calm Calm - N/A   Clear
8:15 PM 44.4 °F - 36.9 °F 75% 29.91 in 10.0 mi Calm Calm - N/A   Clear
8:35 PM 41.4 °F - 36.7 °F 83% 29.92 in 10.0 mi Calm Calm - N/A   Clear
9:15 PM 38.7 °F - 37.6 °F 96% 29.93 in 10.0 mi Calm Calm - N/A   Clear
9:35 PM 38.8 °F - 37.0 °F 93% 29.93 in 10.0 mi Calm Calm - N/A   Clear
9:55 PM 36.1 °F - 35.6 °F 98% 29.94 in 10.0 mi Calm Calm - N/A   Clear
10:15 PM 35.4 °F - 35.4 °F 100% 29.95 in 10.0 mi Calm Calm - N/A   Clear
10:35 PM 35.1 °F - 34.9 °F 99% 29.95 in 10.0 mi Calm Calm - N/A   Clear
10:55 PM 35.1 °F - 35.1 °F 100% 29.96 in 10.0 mi Calm Calm - N/A   Clear
11:15 PM 34.5 °F - 34.5 °F 100% 29.96 in 10.0 mi Calm Calm - N/A   Clear
11:35 PM 34.9 °F - 34.9 °F 100% 29.96 in 10.0 mi Calm Calm - N/A   Clear
11:55 PM 33.8 °F - 33.6 °F 99% 29.96 in 10.0 mi Calm Calm - N/A   Clear